Regional Weather Roundup
Issued by NWS

Home | Current Version | Previous Version | Graphics & Text | Print | Product List | Glossary On
Versions: 1 2 3 4 5 6 7 8 9 10 11 12 13 14 15 16 17 18 19 20 21 22 23 24 25 26 27 28 29 30 31 32 33 34 35 36 37 38 39 40 41 42 43 44 45 46 47 48 49 50
000
ASUS43 KFSD 060702
RWRSD

WEATHER ROUNDUP FOR SOUTH DAKOTA
NATIONAL WEATHER SERVICE SIOUX FALLS SD
100 AM CST FRI MAR 06 2015

NOTE: "FAIR" INDICATES FEW OR NO CLOUDS BELOW 12,000 FEET WITH NO
SIGNIFICANT WEATHER AND/OR OBSTRUCTIONS TO VISIBILITY.


SDZ001>005-009-010-012>017-060800-
NORTHWEST AND NORTH CENTRAL SOUTH DAKOTA

CITY           SKY/WX    TMP DP  RH WIND       PRES   REMARKS
BUFFALO          N/A     27  14  58 W10       30.00F WCI  17
FAITH            N/A     27  11  51 SW8       30.07F WCI  19
MOBRIDGE       CLOUDY    20  14  77 SE6       30.02F WCI  12
$$

SDZ012>016-024>037-041>051-057-063-072>074-060800-
SOUTHWEST AND SOUTH CENTRAL SOUTH DAKOTA

CITY           SKY/WX    TMP DP  RH WIND       PRES   REMARKS
RAPID CTY ARPT MOCLDY    30  16  56 W3        30.11F
PIERRE         PTCLDY    23  15  71 W7        30.10F WCI  15
CUSTER         MOCLDY    27  12  53 VRB6      30.11F WCI  20
ELLSWORTH AFB  MOCLDY    29  16  59 W9        30.09F WCI  20
PHILIP         CLEAR     25  16  68 W9        30.13F WCI  15
PINE RIDGE     PTCLDY    25  18  74 SW6       30.16F WCI  18
SPEARFISH      FAIR      36  16  44 W12       30.10F
WINNER         FAIR      32  17  54 SW8       30.13S WCI  25
$$

SDZ004>011-016>023-039-040-060800-
NORTHEAST SOUTH DAKOTA

CITY           SKY/WX    TMP DP  RH WIND       PRES   REMARKS
ABERDEEN       PTCLDY    11   6  81 S7        30.06F WCI   0
WATERTOWN      CLEAR     12   4  70 S8        30.06F WCI   0
SISSETON         N/A     23   9  55 VRB7      30.02F WCI  15
$$

SDZ017-020-022-023-036>040-048>070-060800-
SOUTHEAST SOUTH DAKOTA

CITY           SKY/WX    TMP DP  RH WIND       PRES   REMARKS
SIOUX FALLS    CLEAR     22   8  55 S13       30.12F WCI  10
HURON          CLEAR     18   7  62 S6        30.09F WCI  10
MITCHELL       CLEAR     17   8  67 S3        30.11F
YANKTON        CLEAR     30   9  40 S13       30.14F WCI  20
$$

ABBREVIATIONS USED IN REMARKS
   TC - TEMPERATURE IN CELSIUS
  WCI - WIND CHILL INDEX
   HX - HEAT INDEX
  VSB - VISIBILITY



USA.gov is the U.S. government's official web portal to all federal, state and local government web resources and services.